GW1009 Weather Reports


time (UTC)temp
C
wind
direction
speed
KPH
gust
KPH
rain 1hr
cm
rain 24hr
cm
rain mn
cm
humidity
%
barometer
mb
20260502152013 4 360 11.3 25.7 0.00 0.00 0.00 69 1012.2
20260502151619 4 360 12.9 30.6 0.00 0.00 0.00 68 1012.2
20260502151012 4 360 6.4 29.0 0.00 0.00 0.00 71 1012.1
20260502150511 4 360 19.3 29.0 0.00 0.00 0.00 71 1012.1
20260502130552 3 360 12.9 22.5 0.00 0.00 0.00 84 1011.8
20260502123548 3 360 11.3 19.3 0.00 0.00 0.00 86 1011.8
20260502123046 3 360 9.7 17.7 0.00 0.00 0.00 86 1011.9
20260502122546 3 360 8.0 14.5 0.00 0.00 0.00 87 1011.9
20260502122044 3 360 4.8 17.7 0.00 0.00 0.00 87 1011.9
20260502121544 2 360 6.4 22.5 0.00 0.00 0.00 87 1011.9
20260502121046 3 360 4.8 17.7 0.00 0.00 0.00 87 1011.8
20260502120543 2 360 9.7 17.7 0.00 0.00 0.00 87 1011.8
20260502115545 2 360 11.3 20.9 0.00 0.00 0.00 88 1011.8
20260502115042 2 360 6.4 17.7 0.00 0.00 0.00 89 1011.8
20260502114554 2 360 6.4 17.7 0.00 0.00 0.00 90 1012.0
20260502114041 2 360 8.0 16.1 0.00 0.00 0.00 90 1012.0
20260502113543 2 360 8.0 17.7 0.00 0.00 0.00 90 1011.9
20260502113043 2 360 6.4 17.7 0.00 0.00 0.00 91 1011.9
20260502112539 2 360 1.6 9.7 0.00 0.00 0.00 91 1011.9
20260502112038 2 360 1.6 8.0 0.00 0.00 0.00 91 1011.8
20260502111538 2 360 0.0 8.0 0.00 0.00 0.00 91 1011.7
20260502111039 2 360 3.2 8.0 0.00 0.00 0.00 91 1011.7
20260502110537 2 360 0.0 4.8 0.00 0.00 0.00 91 1011.7
20260502110039 2 360 0.0 4.8 0.00 0.00 0.00 91 1011.6
20260502105538 2 360 0.0 1.6 0.00 0.00 0.00 91 1011.7
20260502105035 2 360 0.0 3.2 0.00 0.00 0.00 91 1011.5
20260502104547 2 360 0.0 6.4 0.00 0.00 0.00 91 1011.6
20260502104035 2 360 3.2 6.4 0.00 0.00 0.00 91 1011.6
20260502103535 2 360 0.0 6.4 0.00 0.00 0.00 91 1011.5
20260502103036 2 360 3.2 6.4 0.00 0.00 0.00 91 1011.5
20260502102533 2 360 0.0 4.8 0.00 0.00 0.00 91 1011.4
20260502102033 2 360 0.0 8.0 0.00 0.00 0.00 91 1011.3
20260502101547 2 360 1.6 8.0 0.00 0.00 0.00 91 1011.3
20260502101032 2 360 1.6 6.4 0.00 0.00 0.00 91 1011.3
20260502100531 2 360 3.2 6.4 0.00 0.00 0.00 91 1011.1
20260502091527 2 360 3.2 12.9 0.00 0.00 0.00 91 1010.8
20260502091026 2 360 1.6 9.7 0.00 0.00 0.00 91 1010.7
20260502090526 2 360 4.8 14.5 0.00 0.00 0.00 91 1010.7
20260502071518 2 360 1.6 9.7 0.00 0.00 0.00 91 1010.7
20260502071021 2 360 3.2 9.7 0.00 0.00 0.00 91 1010.6
20260502070518 2 360 6.4 9.7 0.00 0.00 0.00 91 1010.5
20260502070022 2 360 3.2 8.0 0.00 0.00 0.00 91 1010.5
20260502065517 2 360 4.8 12.9 0.00 0.00 0.00 91 1010.5
20260502065017 2 360 4.8 12.9 0.00 0.00 0.00 91 1010.4
20260502064517 2 360 3.2 9.7 0.00 0.00 0.00 91 1010.5
20260502064015 2 360 4.8 12.9 0.00 0.00 0.00 91 1010.4
20260502063514 2 360 4.8 8.0 0.00 0.00 0.00 91 1010.3
20260502063016 2 360 3.2 9.7 0.00 0.00 0.00 91 1010.5
20260502062514 2 360 3.2 9.7 0.00 0.00 0.00 91 1010.6
20260502062013 2 360 4.8 14.5 0.00 0.00 0.00 91 1010.7
20260502061513 2 360 9.7 14.5 0.00 0.00 0.00 91 1010.4
20260502061011 2 360 6.4 9.7 0.00 0.00 0.00 91 1010.4
20260502060511 2 360 4.8 9.7 0.00 0.00 0.00 91 1010.5
20260502060013 2 360 4.8 9.7 0.00 0.00 0.00 91 1010.6
20260502055509 2 360 6.4 9.7 0.00 0.00 0.00 91 1010.6
20260502055009 2 360 4.8 16.1 0.00 0.00 0.00 91 1010.7
20260502054508 2 360 8.0 16.1 0.00 0.00 0.00 91 1010.7
20260502054006 2 360 8.0 16.1 0.00 0.00 0.00 91 1010.8
20260502053510 2 360 6.4 16.1 0.00 0.00 0.00 91 1010.9
20260502053005 2 360 8.0 14.5 0.00 0.00 0.00 91 1010.9
20260502052504 2 360 4.8 12.9 0.00 0.00 0.00 91 1010.9
20260502052004 2 360 4.8 12.9 0.00 0.00 0.00 91 1010.7
20260502051505 2 360 4.8 12.9 0.00 0.00 0.00 91 1010.7
20260502051002 2 360 3.2 12.9 0.00 0.00 0.00 91 1010.6
20260502050502 2 360 3.2 6.4 0.00 0.00 0.00 91 1010.6
20260502050007 2 360 3.2 9.7 0.00 0.00 0.00 91 1010.6
20260502045600 2 360 6.4 9.7 0.00 0.00 0.00 90 1010.5
20260502045059 3 360 6.4 9.7 0.00 0.00 0.00 90 1010.6
20260502044600 3 360 4.8 9.7 0.00 0.00 0.00 90 1010.6
20260502044059 3 360 3.2 8.0 0.00 0.00 0.00 90 1010.6
20260502043558 3 360 3.2 8.0 0.00 0.00 0.00 90 1010.6
20260502043104 3 360 6.4 9.7 0.00 0.00 0.00 90 1010.5
20260502042556 3 360 4.8 9.7 0.00 0.00 0.00 90 1010.6
20260502042054 3 360 6.4 9.7 0.00 0.00 0.00 90 1010.5
20260502041555 3 360 4.8 9.7 0.00 0.00 0.00 89 1010.4
20260502041054 3 360 4.8 12.9 0.00 0.00 0.00 89 1010.4
20260502040554 3 360 6.4 16.1 0.00 0.00 0.00 89 1010.4
20260502040057 3 360 8.0 16.1 0.00 0.00 0.00 89 1010.5
20260502035553 3 360 8.0 12.9 0.00 0.00 0.00 89 1010.4
20260502035051 4 360 6.4 9.7 0.00 0.00 0.00 88 1010.4
20260502034551 4 360 4.8 6.4 0.00 0.00 0.00 89 1010.4
20260502034055 4 360 1.6 3.2 0.00 0.00 0.00 89 1010.3
20260502033550 4 360 0.0 3.2 0.00 0.00 0.00 89 1010.5
20260502033050 4 360 0.0 4.8 0.00 0.00 0.00 89 1010.4
20260502032550 5 360 0.0 4.8 0.00 0.00 0.00 89 1010.3
20260502032050 5 360 0.0 4.8 0.00 0.00 0.00 89 1010.5
20260502031550 5 360 1.6 4.8 0.00 0.00 0.00 89 1010.5
20260502031050 5 360 0.0 4.8 0.00 0.00 0.00 88 1010.5
20260502030551 5 360 0.0 6.4 0.00 0.00 0.00 88 1010.5
20260502030052 5 360 3.2 6.4 0.00 0.00 0.00 88 1010.5
20260502025549 5 360 0.0 4.8 0.00 0.00 0.00 88 1010.6
20260502025050 5 360 1.6 6.4 0.00 0.00 0.00 88 1010.6
20260502024549 5 360 1.6 6.4 0.00 0.00 0.00 88 1010.7
20260502024049 5 360 0.0 4.8 0.00 0.00 0.00 87 1010.7
20260502023551 5 360 0.0 0.0 0.00 0.00 0.00 87 1010.6
20260502023101 5 360 0.0 0.0 0.00 0.00 0.00 87 1010.7
20260502022549 5 360 0.0 0.0 0.00 0.00 0.00 87 1010.6
20260502022050 5 360 0.0 0.0 0.00 0.00 0.00 87 1010.5
20260502021547 5 360 0.0 0.0 0.00 0.00 0.00 87 1010.6
20260502021047 5 360 0.0 0.0 0.00 0.00 0.00 86 1010.7
20260502020547 5 360 0.0 0.0 0.00 0.00 0.00 86 1010.7
20260502015546 5 360 0.0 0.0 0.00 0.00 0.00 85 1010.6
20260502015046 5 360 0.0 0.0 0.00 0.00 0.00 85 1010.6
20260502014549 5 360 0.0 0.0 0.00 0.00 0.00 84 1010.7
20260502014045 5 360 0.0 0.0 0.00 0.00 0.00 84 1010.7
20260502013545 5 360 0.0 0.0 0.00 0.00 0.00 83 1010.8
20260502013059 5 360 0.0 0.0 0.00 0.00 0.00 83 1010.7
20260502012546 5 360 0.0 0.0 0.00 0.00 0.00 83 1010.6
20260502012046 5 360 0.0 3.2 0.00 0.00 0.00 82 1010.7
20260502011546 5 360 0.0 3.2 0.00 0.00 0.00 81 1010.6
20260502011045 5 360 0.0 0.0 0.00 0.00 0.00 80 1010.6
20260502010545 6 360 0.0 3.2 0.00 0.00 0.00 79 1010.5
20260502010045 6 360 0.0 3.2 0.00 0.00 0.00 78 1010.6
20260502005545 6 360 0.0 3.2 0.00 0.00 0.00 77 1010.6
20260502005048 6 360 0.0 4.8 0.00 0.00 0.00 76 1010.7
20260502004555 6 360 0.0 6.4 0.00 0.00 0.00 75 1010.6
20260502004045 6 360 0.0 6.4 0.00 0.00 0.00 73 1010.5
20260502003545 6 360 0.0 4.8 0.00 0.00 0.00 71 1010.6
20260502003043 7 360 0.0 6.4 0.00 0.00 0.00 69 1010.5
20260502002543 7 360 1.6 6.4 0.00 0.00 0.00 67 1010.4
20260502002044 7 360 0.0 3.2 0.00 0.00 0.00 65 1010.3
20260502001602 7 360 0.0 8.0 0.00 0.00 0.00 63 1010.2
20260502001043 7 360 0.0 8.0 0.00 0.00 0.00 62 1010.1
20260502000542 7 360 3.2 8.0 0.00 0.00 0.00 60 1009.9
20260502000041 7 360 1.6 4.8 0.00 0.00 0.00 59 1009.8
20260501235542 7 360 1.6 4.8 0.00 0.00 0.00 58 1009.8
20260501235041 7 360 0.0 4.8 0.00 0.00 0.00 59 1009.8
20260501234541 7 360 0.0 3.2 0.00 0.00 0.00 58 1009.7
20260501234041 7 360 1.6 4.8 0.00 0.00 0.00 57 1009.7
20260501233542 8 360 0.0 4.8 0.00 0.00 0.00 56 1009.7
20260501233049 8 360 0.0 4.8 0.00 0.00 0.00 56 1009.7
20260501232544 8 360 0.0 4.8 0.00 0.00 0.00 55 1009.7
20260501232040 8 360 0.0 4.8 0.00 0.00 0.00 55 1009.9
20260501231541 8 360 0.0 4.8 0.00 0.00 0.00 55 1009.8
20260501231041 8 360 1.6 3.2 0.00 0.00 0.00 55 1009.9
20260501230540 8 360 0.0 6.4 0.00 0.00 0.00 53 1009.8
20260501230040 8 360 1.6 16.1 0.00 0.00 0.00 55 1009.8
20260501225539 8 360 6.4 16.1 0.00 0.00 0.00 54 1009.9
20260501225039 8 360 3.2 17.7 0.00 0.00 0.00 53 1009.9
20260501224540 8 360 3.2 14.5 0.00 0.00 0.00 52 1009.9
20260501224039 8 360 3.2 14.5 0.00 0.00 0.00 51 1009.9
20260501223541 8 360 1.6 6.4 0.00 0.00 0.00 51 1009.8
20260501223040 8 360 0.0 6.4 0.00 0.00 0.00 50 1009.9
20260501222538 8 360 0.0 8.0 0.00 0.00 0.00 49 1009.9
20260501222038 9 360 1.6 12.9 0.00 0.00 0.00 49 1009.9
20260501221539 9 360 3.2 12.9 0.00 0.00 0.00 48 1009.9
20260501221037 9 360 1.6 8.0 0.00 0.00 0.00 48 1010.0
20260501220537 10 360 1.6 8.0 0.00 0.00 0.00 48 1009.9
20260501220108 10 360 1.6 6.4 0.00 0.00 0.00 46 1009.9
20260501215537 10 360 1.6 9.7 0.00 0.00 0.00 45 1009.8
20260501215038 10 360 1.6 17.7 0.00 0.00 0.00 46 1009.7
20260501214539 10 360 8.0 17.7 0.00 0.00 0.00 43 1009.8
20260501214037 10 360 3.2 12.9 0.00 0.00 0.00 45 1009.8
20260501213535 10 360 1.6 12.9 0.00 0.00 0.00 45 1009.7
20260501213036 10 360 1.6 14.5 0.00 0.00 0.00 46 1009.7
20260501212536 10 360 3.2 16.1 0.00 0.00 0.00 46 1009.7
20260501212036 10 360 6.4 16.1 0.00 0.00 0.00 46 1009.6
20260501211536 9 360 1.6 19.3 0.00 0.00 0.00 46 1009.6
20260501211036 9 360 12.9 19.3 0.00 0.00 0.00 45 1009.6
20260501210534 9 360 4.8 16.1 0.00 0.00 0.00 45 1009.6
20260501210047 9 360 9.7 16.1 0.00 0.00 0.00 46 1009.6
20260501205534 9 360 3.2 8.0 0.00 0.00 0.00 48 1009.6
20260501205035 9 360 3.2 8.0 0.00 0.00 0.00 44 1009.7
20260501204540 9 360 3.2 9.7 0.00 0.00 0.00 45 1009.7
20260501204033 9 360 3.2 14.5 0.00 0.00 0.00 43 1009.7
20260501203533 9 360 8.0 14.5 0.00 0.00 0.00 45 1009.7
20260501203037 9 360 6.4 12.9 0.00 0.00 0.00 46 1009.6
20260501202534 9 360 6.4 17.7 0.00 0.00 0.00 45 1009.6
20260501202033 9 360 8.0 17.7 0.00 0.00 0.00 46 1009.7
20260501201539 9 360 3.2 14.5 0.00 0.00 0.00 44 1009.7
20260501201032 9 360 8.0 17.7 0.00 0.00 0.00 45 1009.8
20260501200532 10 360 11.3 17.7 0.00 0.00 0.00 44 1009.8
20260501200032 10 288 8.0 16.1 0.00 0.00 0.00 45 1009.8
20260501195532 10 360 1.6 19.3 0.00 0.00 0.00 43 1009.8
20260501195030 10 360 8.0 19.3 0.00 0.00 0.00 45 1009.8
20260501194535 9 360 6.4 14.5 0.00 0.00 0.00 43 1009.8
20260501194029 9 360 6.4 19.3 0.00 0.00 0.00 46 1009.9
20260501193529 9 360 9.7 19.3 0.00 0.00 0.00 47 1009.9
20260501193039 9 360 8.0 14.5 0.00 0.00 0.00 47 1009.8
20260501192529 9 360 4.8 12.9 0.00 0.00 0.00 47 1010.0
20260501192029 9 360 3.2 17.7 0.00 0.00 0.00 44 1010.0
20260501191529 9 360 12.9 19.3 0.00 0.00 0.00 43 1010.0
20260501191029 9 360 12.9 19.3 0.00 0.00 0.00 47 1010.0
20260501190534 9 360 11.3 17.7 0.00 0.00 0.00 45 1009.9
20260501190034 9 360 8.0 16.1 0.00 0.00 0.00 47 1010.1
20260501185528 9 360 8.0 16.1 0.00 0.00 0.00 43 1010.0
20260501185028 9 360 6.4 16.1 0.00 0.00 0.00 45 1010.2
20260501184530 9 360 6.4 16.1 0.00 0.00 0.00 45 1010.1
20260501184027 10 303 11.3 16.1 0.00 0.00 0.00 45 1010.2
20260501183527 10 277 8.0 17.7 0.00 0.00 0.00 47 1010.2
20260501183126 10 289 11.3 17.7 0.00 0.00 0.00 45 1010.2
20260501182526 10 277 8.0 17.7 0.00 0.00 0.00 45 1010.2
20260501182030 10 317 9.7 17.7 0.00 0.00 0.00 44 1010.2
20260501181548 9 360 3.2 17.7 0.00 0.00 0.00 44 1010.2
20260501181026 9 360 9.7 20.9 0.00 0.00 0.00 47 1010.2
20260501180526 9 302 11.3 20.9 0.00 0.00 0.00 46 1010.3
20260501180025 10 306 11.3 17.7 0.00 0.00 0.00 44 1010.3
20260501175525 10 281 11.3 17.7 0.00 0.00 0.00 47 1010.4
20260501175027 10 296 6.4 17.7 0.00 0.00 0.00 46 1010.4
20260501174523 10 360 9.7 19.3 0.00 0.00 0.00 46 1010.4
20260501174022 10 360 12.9 24.1 0.00 0.00 0.00 46 1010.4
20260501173522 10 360 12.9 24.1 0.00 0.00 0.00 44 1010.5
20260501173021 9 360 8.0 22.5 0.00 0.00 0.00 50 1010.6
20260501172521 8 360 12.9 22.5 0.00 0.00 0.00 47 1010.6
20260501172021 8 360 9.7 24.1 0.00 0.00 0.00 46 1010.6
20260501171524 8 360 9.7 24.1 0.00 0.00 0.00 47 1010.7
20260501171020 8 360 6.4 14.5 0.00 0.00 0.00 45 1010.7
20260501170520 8 360 3.2 16.1 0.00 0.00 0.00 45 1010.8
20260501170024 8 360 9.7 17.7 0.00 0.00 0.00 47 1010.9
20260501165519 8 360 12.9 20.9 0.00 0.00 0.00 46 1010.9
20260501165019 8 5 11.3 20.9 0.00 0.00 0.00 46 1010.8
20260501164536 8 360 8.0 24.1 0.00 0.00 0.00 46 1010.9
20260501164019 8 360 11.3 24.1 0.00 0.00 0.00 48 1011.0
20260501163518 8 360 14.5 24.1 0.00 0.00 0.00 50 1011.0
20260501163034 8 360 16.1 24.1 0.00 0.00 0.00 48 1011.0
20260501162518 8 360 14.5 19.3 0.00 0.00 0.00 48 1011.1
20260501162020 8 360 4.8 19.3 0.00 0.00 0.00 48 1011.2
20260501161519 8 360 8.0 29.0 0.00 0.00 0.00 49 1011.2
20260501161019 8 360 14.5 29.0 0.00 0.00 0.00 51 1011.3
20260501160517 8 360 12.9 24.1 0.00 0.00 0.00 47 1011.5
20260501160025 8 360 8.0 29.0 0.00 0.00 0.00 52 1011.6
20260501155515 8 360 19.3 29.0 0.00 0.00 0.00 50 1011.6
20260501155017 8 360 6.4 20.9 0.00 0.00 0.00 50 1011.7
20260501154515 7 360 9.7 20.9 0.00 0.00 0.00 50 1011.7
20260501154012 7 360 6.4 16.1 0.00 0.00 0.00 51 1011.7
20260501153512 7 360 6.4 16.1 0.00 0.00 0.00 53 1011.8